Location: Pasadena, ca
(34.1243°N, 118.1037°W)
Time: 01:44:27
(UTC-08:00)

Hubble Space Telescope - Visible Passes

Search period start: 25 November 2017 00:00
Search period end: 05 December 2017 00:00
Orbit: 537 x 541 km, 28.5° (Epoch: 24 November)

Date Brightness Start Highest point End Pass type
(mag) Time Alt. Az. Time Alt. Az. Time Alt. Az.
25 Nov 2.4 05:08:19 19° SW 05:09:39 22° SSW 05:12:54 10° SE visible
26 Nov 2.6 04:58:45 18° SSW 04:59:21 19° SSW 05:02:18 10° SSE visible
27 Nov 2.9 04:49:12 16° SSW 04:49:12 16° SSW 04:51:35 10° SSE visible
28 Nov 3.2 04:39:40 12° S 04:39:40 12° S 04:40:38 10° S visible
04 Dec 3.6 19:00:40 10° S 19:00:50 10° S 19:00:50 10° S visible
